Date String (YYYY-MM-DD hh:mm:ss) UTC,Instrument flags,Ambient pressure (hPa),Sample flow (lpm),Bypass flow (lpm),Sample temperature (°C),Ambient temperature (°C),ASC tube jacket temperature (°C),LED temperature (°C),Box temperature (°C),Sample RH (%),Span deviation,Mass concentration (μg/m³),Mass concentration (μg/m³),Mass concentration (μg/m³)
DateTimeUTC,F1_M11,P_M11,Q1_M11,Q2_M11,T1_M11,T2_M11,T3_M11,T4_M11,T5_M11,U1_M11,ZSPAN_M11,X0_M11,X2_M11,X1_M11
2022-01-11 09:00:00,,0831.5,5.01,0.00,22.8,22.1,00.0,32.0,24.6,05.5,0000.0,0003.72,0002.24,0001.87
2022-01-11 09:01:00,,0831.5,4.99,0.00,22.8,22.1,00.0,32.0,24.6,06.6,0000.0,0002.95,0002.03,0001.70
2022-01-11 09:02:00,,0831.5,5.02,0.00,22.8,22.1,00.0,32.0,24.6,07.0,0000.0,0004.32,0001.99,0001.69
2022-01-11 09:03:00,,0831.6,5.00,0.00,22.8,22.1,00.0,31.9,24.6,06.8,0000.0,0004.40,0002.07,0001.76
2022-01-11 09:04:00,,0831.7,4.99,0.00,22.8,22.0,00.0,31.9,24.5,07.0,0000.0,0005.06,0002.25,0001.93
2022-01-11 09:05:00,,0831.6,5.01,0.00,22.7,21.9,00.0,31.9,24.4,07.3,0000.0,0005.59,0002.52,0002.18
2022-01-11 09:06:00,,0831.5,4.99,0.00,22.7,21.9,00.0,31.9,24.4,07.1,0000.0,0006.42,0002.78,0002.41
2022-01-11 09:07:00,,0831.6,4.99,0.00,22.7,21.9,00.0,31.9,24.4,06.9,0000.0,0006.73,0002.99,0002.59
2022-01-11 09:08:00,,0831.6,5.01,0.00,22.7,21.9,00.0,31.9,24.4,06.9,0000.0,0007.72,0003.15,0002.78
2022-01-11 09:09:00,,0831.6,4.98,0.00,22.7,21.9,00.0,31.8,24.4,07.0,0000.0,0007.89,0003.29,0003.00
2022-01-11 09:10:00,,0831.6,5.02,0.00,22.7,21.9,00.0,31.8,24.4,07.0,0000.0,0008.14,0003.46,0003.19
2022-01-11 09:11:00,,0831.7,4.98,0.00,22.6,21.8,00.0,31.8,24.3,07.3,0000.0,0008.43,0003.67,0003.36
2022-01-11 09:12:00,,0831.6,5.01,0.00,22.6,21.8,00.0,31.8,24.4,07.4,0000.0,0008.74,0003.84,0003.50
2022-01-11 09:13:00,,0831.6,4.99,0.00,22.6,21.8,00.0,31.8,24.4,07.2,0000.0,0008.30,0003.89,0003.53
2022-01-11 09:14:00,,0831.6,5.00,0.00,22.6,21.8,00.0,31.8,24.4,06.5,0000.0,0007.94,0003.86,0003.50
2022-01-11 09:15:00,,0831.6,5.00,0.00,22.6,21.9,00.0,31.8,24.4,06.2,0000.0,0007.75,0003.83,0003.45
2022-01-11 09:16:00,,0831.6,5.00,0.00,22.7,21.9,00.0,31.7,24.4,06.1,0000.0,0007.54,0003.75,0003.37
2022-01-11 09:17:00,,0831.6,5.00,0.00,22.7,22.0,00.0,31.7,24.5,06.1,0000.0,0006.74,0003.64,0003.27
2022-01-11 09:18:00,,0831.6,5.00,0.00,22.6,21.9,00.0,31.7,24.4,06.7,0000.0,0006.74,0003.59,0003.22
2022-01-11 09:19:00,,0831.7,5.01,0.00,22.6,21.9,00.0,31.7,24.3,06.6,0000.0,0005.84,0003.59,0003.18
2022-01-11 09:20:00,,0831.7,4.98,0.00,22.6,21.8,00.0,31.7,24.3,06.5,0000.0,0006.27,0003.53,0003.12
2022-01-11 09:21:00,,0831.6,5.01,0.00,22.5,21.8,00.0,31.7,24.3,06.4,0000.0,0007.15,0003.47,0003.05
2022-01-11 09:22:00,,0831.6,4.99,0.00,22.5,21.8,00.0,31.7,24.3,06.4,0000.0,0006.95,0003.37,0002.92
2022-01-11 09:23:00,,0831.6,5.01,0.00,22.5,21.8,00.0,31.7,24.3,06.2,0000.0,0006.77,0003.26,0002.76
2022-01-11 09:24:00,,0831.6,4.99,0.00,22.5,21.8,00.0,31.6,24.3,06.0,0000.0,0007.07,0003.14,0002.56
2022-01-11 09:25:00,,0831.6,4.99,0.00,22.6,21.9,00.0,31.6,24.4,06.0,0000.0,0007.65,0003.06,0002.45
2022-01-11 09:26:00,,0831.7,5.01,0.00,22.6,21.9,00.0,31.6,24.4,06.3,0000.0,0007.53,0002.95,0002.42
2022-01-11 09:27:00,,0831.6,5.00,0.00,22.6,22.0,00.0,31.6,24.4,06.1,0000.0,0007.59,0002.97,0002.42
2022-01-11 09:28:00,,0831.6,5.00,0.00,22.6,22.0,00.0,31.6,24.4,06.1,0000.0,0007.56,0002.94,0002.41
2022-01-11 09:29:00,,0831.6,4.99,0.00,22.6,22.0,00.0,31.6,24.4,06.0,0000.0,0007.49,0002.88,0002.37
2022-01-11 09:30:00,,0831.7,5.00,0.00,22.6,22.0,00.0,31.6,24.4,06.0,0000.0,0007.38,0002.78,0002.31
2022-01-11 09:31:00,,0831.7,4.99,0.00,22.6,22.0,00.0,31.6,24.4,06.0,0000.0,0007.28,0002.73,0002.27
2022-01-11 09:32:00,,0831.7,5.01,0.00,22.6,22.0,00.0,31.6,24.4,06.0,0000.0,0005.73,0002.68,0002.22
2022-01-11 09:33:00,,0831.8,5.00,0.00,22.6,22.0,00.0,31.6,24.4,06.0,0000.0,0005.80,0002.72,0002.19
2022-01-11 09:34:00,,0831.8,5.00,0.00,22.6,21.9,00.0,31.6,24.4,06.0,0000.0,0005.77,0002.70,0002.16
2022-01-11 09:35:00,,0831.8,5.01,0.00,22.6,21.9,00.0,31.6,24.4,05.9,0000.0,0005.26,0002.65,0002.15
2022-01-11 09:36:00,,0831.7,5.00,0.00,22.6,21.9,00.0,31.6,24.4,05.8,0000.0,0003.99,0002.60,0002.14
2022-01-11 09:37:00,,0831.7,4.99,0.00,22.6,21.9,00.0,31.6,24.3,06.0,0000.0,0004.18,0002.59,0002.12
2022-01-11 09:38:00,,0831.8,5.01,0.00,22.6,21.9,00.0,31.6,24.3,06.0,0000.0,0004.09,0002.54,0002.08
2022-01-11 09:39:00,,0831.8,5.00,0.00,22.6,21.9,00.0,31.6,24.4,06.1,0000.0,0004.40,0002.58,0002.07
2022-01-11 09:40:00,,0831.7,5.00,0.00,22.6,21.9,00.0,31.6,24.4,06.0,0000.0,0004.50,0002.59,0002.05
2022-01-11 09:41:00,,0831.7,5.01,0.00,22.6,21.9,00.0,31.6,24.4,05.6,0000.0,0004.31,0002.48,0001.97
2022-01-11 09:42:00,,0831.8,4.99,0.00,22.6,22.0,00.0,31.6,24.4,05.9,0000.0,0004.10,0002.42,0001.93
2022-01-11 09:43:00,,0831.9,5.01,0.00,22.6,22.0,00.0,31.6,24.4,05.6,0000.0,0003.97,0002.36,0001.89
2022-01-11 09:44:00,,0831.7,5.00,0.00,22.6,22.0,00.0,31.6,24.5,05.4,0000.0,0004.71,0002.22,0001.84
2022-01-11 09:45:00,,0831.7,4.99,0.00,22.6,22.0,00.0,31.6,24.5,05.3,0000.0,0005.13,0002.14,0001.77
2022-01-11 09:46:00,,0831.8,5.00,0.00,22.6,22.0,00.0,31.6,24.5,05.1,0000.0,0005.53,0002.05,0001.70
2022-01-11 09:47:00,,0831.7,5.02,0.00,22.7,22.1,00.0,31.6,24.5,05.3,0000.0,0005.50,0002.01,0001.64
2022-01-11 09:48:00,,0831.8,4.99,0.00,22.7,22.1,00.0,31.6,24.4,05.4,0000.0,0005.23,0001.96,0001.60
2022-01-11 09:49:00,,0831.7,5.01,0.00,22.7,22.0,00.0,31.6,24.4,05.4,0000.0,0005.12,0001.91,0001.55
2022-01-11 09:50:00,,0831.7,4.99,0.00,22.6,22.0,00.0,31.6,24.4,05.5,0000.0,0004.90,0001.82,0001.51
2022-01-11 09:51:00,,0831.7,5.01,0.00,22.6,21.9,00.0,31.6,24.4,05.4,0000.0,0004.63,0001.70,0001.45
2022-01-11 09:52:00,,0831.7,4.99,0.00,22.6,21.9,00.0,31.6,24.3,05.5,0000.0,0004.69,0001.72,0001.46
2022-01-11 09:53:00,,0831.7,5.00,0.00,22.5,21.9,00.0,31.6,24.3,05.3,0000.0,0004.73,0001.69,0001.41
2022-01-11 09:54:00,,0831.7,5.00,0.00,22.5,21.8,00.0,31.6,24.2,04.9,0000.0,0005.06,0001.66,0001.35
2022-01-11 09:55:00,,0831.6,4.99,0.00,22.5,21.8,00.0,31.6,24.2,04.8,0000.0,0005.01,0001.63,0001.29
2022-01-11 09:56:00,,0831.6,5.01,0.00,22.5,21.8,00.0,31.6,24.2,04.7,0000.0,0004.15,0001.53,0001.22
2022-01-11 09:57:00,,0831.5,5.00,0.00,22.5,21.8,00.0,31.6,24.2,04.6,0000.0,0003.51,0001.44,0001.15
2022-01-11 09:58:00,,0831.5,5.00,0.00,22.5,21.8,00.0,31.6,24.2,04.7,0000.0,0003.34,0001.31,0001.07
2022-01-11 09:59:00,,0831.5,4.99,0.00,22.5,21.8,00.0,31.6,24.2,04.6,0000.0,0003.18,0001.19,0000.96
